STARLINK-11633, 63317

Orbit data source: Space-Track

STARLINK-11633, 63317 is a payload satellite owned by SpaceX/Seattle (US) in LEO that was launched on Tue, 18 Mar 2025 UTC via an FALCON 9 launch vehicle from the Air Force Eastern Test Range (AFETR). Payload-class satellites include a variety of spacecraft equipped with specific instruments for various scientific and technological missions. These include communications satellites like Starlink; space stations such as the ISS; scientific satellites like the Hubble; Earth observation satellites from companies like Planet Labs, Umbra, and HawkEye 360; GPS; miniature CubeSats for education and research; and military/defense satellites.

Loading next visibility...
Identifier
63317, 2025-057L
Orbit
LEO
Country
Flag of USUS
Related business
Manufacturer
SpaceX/Seattle
Mission
Operational Commercial Communications
Bus & Motor
STARLINK V2MD, Unknown motor
Mass
960 kg wet, ~910 kg dry
Launch date (UTC)
2025-03-18 (9 months ago)
Launch vehicle
FALCON 9
Launch site
Air Force Eastern Test Range (AFETR)
Object type
Payload
Rocket body
Debris
Shape & HBR
Box + 2 Pan, 18.1 m
Radar Cross Section
36.964 m², Large (>1 m²)

Expand to show TLE details & history
Last TLE update: 11 hours ago

TLE from 11 hours ago
0 STARLINK-11633
1 63317U 25057L   25352.44016156  .00179877  00000-0  13716-2 0  9992
2 63317  43.0002  33.8744 0001367 272.9215  87.1496 15.70901959 44408
Epoch: 2025-12-18T10:33Z
TLE epoch observation values (Epoch: 2025-12-18T10:33:49.958Z)
Latitude
-0.00005°
Longitude
148.12055°
Altitude
356.044 km
Speed
7.697 km/s
True Right ascension
02h 15m 29s
True Declination
0° 00' 00"
Sunlit
Object was in full shadow at epoch
Visualization orbit readout
Latitude
Unknown
Longitude
Unknown
Altitude
Unknown
Speed
Unknown
Apparent Right ascension
Unknown
Apparent Declination
Unknown
Sunlit
N/A
Visualization observer readout
Local Sidereal Time
20:19:18
Azimuth
Unknown
Elevation
Unknown
Doppler factor
Unknown
Orbital elements
Apogee altitude
359.22 km
Perigee altitude
357.379 km
Semi-major axis
6,736.437 km
Eccentricity
0.00014
Inclination
43.0002°
RAAN
33.8744°
Arg. of periapsis
272.9215°
True anomaly
87.16525°
Mean anomaly
87.1496°
Eccentric anomaly
87.15742°
Mean motion
3.92553 °/min
Orbital period
91.71 mins
BSTAR
0.0013716
Loading maneuver chart data...
Computing Atmospheric mass density...
Loading historical data...
Loading historical data...
Loading historical data...
Loading historical data...
Loading historical data...
Loading historical data...
Loading historical data...

Documentation

Showing up to 5 results
|